TimeEST,TemperatureF,Dew PointF,Humidity,Sea Level PressureIn,VisibilityMPH,Wind Direction,Wind SpeedMPH,Gust SpeedMPH,PrecipitationIn,Events,Conditions,WindDirDegrees,DateUTC
12:52 AM,30.0,25.0,82,30.16,8.0,Calm,Calm,-,N/A,,Clear,0,2012-11-08 05:52:00
1:52 AM,27.0,21.9,81,30.17,9.0,West,3.5,-,N/A,,Clear,270,2012-11-08 06:52:00
2:52 AM,27.0,23.0,85,30.17,8.0,Calm,Calm,-,N/A,,Clear,0,2012-11-08 07:52:00
3:52 AM,26.1,21.9,84,30.17,8.0,North,-9999.0,-,N/A,,Clear,0,2012-11-08 08:52:00
4:52 AM,28.0,24.1,85,30.19,6.0,NW,3.5,-,N/A,,Clear,310,2012-11-08 09:52:00
5:52 AM,28.0,23.0,81,30.20,6.0,Calm,Calm,-,N/A,,Haze,0,2012-11-08 10:52:00
6:52 AM,25.0,21.0,85,30.22,7.0,Calm,Calm,-,N/A,,Clear,0,2012-11-08 11:52:00
7:52 AM,26.1,21.9,84,30.24,5.0,North,-9999.0,-,N/A,,Clear,0,2012-11-08 12:52:00
8:52 AM,30.9,26.1,82,30.25,4.0,Calm,Calm,-,N/A,,Haze,0,2012-11-08 13:52:00
9:52 AM,37.9,30.0,73,30.25,5.0,Calm,Calm,-,N/A,,Haze,0,2012-11-08 14:52:00
10:52 AM,43.0,30.0,60,30.25,7.0,Calm,Calm,-,N/A,,Clear,0,2012-11-08 15:52:00
11:52 AM,44.1,30.9,60,30.22,10.0,Calm,Calm,-,N/A,,Clear,0,2012-11-08 16:52:00
12:52 PM,46.0,30.9,56,30.20,10.0,Calm,Calm,-,N/A,,Clear,0,2012-11-08 17:52:00
1:52 PM,48.9,30.9,50,30.18,10.0,SW,5.8,-,N/A,,Clear,230,2012-11-08 18:52:00
2:52 PM,48.9,30.9,50,30.17,10.0,WNW,5.8,-,N/A,,Clear,290,2012-11-08 19:52:00
3:52 PM,48.0,30.9,52,30.17,9.0,West,5.8,-,N/A,,Clear,260,2012-11-08 20:52:00
4:52 PM,46.9,30.0,52,30.17,10.0,WSW,4.6,-,N/A,,Clear,240,2012-11-08 21:52:00
5:52 PM,41.0,30.0,65,30.17,10.0,Calm,Calm,-,N/A,,Scattered Clouds,0,2012-11-08 22:52:00
6:52 PM,37.0,28.9,73,30.17,8.0,Calm,Calm,-,N/A,,Clear,0,2012-11-08 23:52:00
7:52 PM,35.1,28.9,78,30.17,7.0,Calm,Calm,-,N/A,,Clear,0,2012-11-09 00:52:00
8:52 PM,33.1,28.0,82,30.17,7.0,Calm,Calm,-,N/A,,Clear,0,2012-11-09 01:52:00
9:52 PM,32.0,27.0,82,30.17,4.0,WSW,4.6,-,N/A,,Haze,250,2012-11-09 02:52:00
10:52 PM,32.0,27.0,82,30.16,7.0,West,4.6,-,N/A,,Clear,260,2012-11-09 03:52:00
11:52 PM,34.0,28.9,82,30.17,6.0,WSW,3.5,-,N/A,,Haze,240,2012-11-09 04:52:00